User: anonymous   Login
Location: Unspecified
(0.0000°N, 0.0000°E)
Time: 09:52:10
(UTC+00:00)
Language:

USA 200 - Orbit

View from above orbital plane
View from above orbital plane
View from above satellite
View from above satellite

Ground track
Ground track

The orbit data is extracted from the following two-line orbital elements,

1 32706U 08010A   16330.45121155 0.00000000  00000-0  00000-0 0    07
2 32706  63.6176  13.5212 7154118 270.8086  14.9194  2.00615000    03
Epoch (UTC): 25 November 2016 10:49:44
Eccentricity: 0.7154118
inclination: 63.6176°
perigee height: 1179 km
apogee height: 39175 km
right ascension of ascending node: 13.5212°
argument of perigee: 270.8086°
revolutions per day: 2.00615000
mean anomaly at epoch: 14.9194°
orbit number at epoch: 0

The dashed part of the orbit path shows where the satellite is in the earth's shadow,  

DLR